EN

Hourly Weather Nakolec

Today, 19 January, Tuesday

Time Temperature Precipitation Wind Pressure Humidity
00:00 -11°C° 0 mm 1 mps 675 mmHg 84%
01:00 -10°C° 0 mm 1 mps 675 mmHg 83%
02:00 -10°C° 0 mm 1 mps 675 mmHg 84%
03:00 -10°C° 0 mm 1 mps 675 mmHg 84%
04:00 -10°C° 0 mm 1 mps 675 mmHg 85%
05:00 -10°C° 0 mm 1 mps 675 mmHg 83%
06:00 -11°C° 0 mm 1 mps 675 mmHg 82%
07:00 -11°C° 0 mm 1 mps 675 mmHg 80%
08:00 -9°C° 0 mm 1 mps 676 mmHg 77%
09:00 -7°C° 0 mm 1 mps 677 mmHg 74%
10:00 -4°C° 0 mm 1 mps 678 mmHg 71%
11:00 -3°C° 0 mm 1 mps 677 mmHg 70%
12:00 -2°C° 0 mm 1 mps 677 mmHg 69%
13:00 -1°C° 0 mm 1 mps 677 mmHg 67%
14:00 -2°C° 0 mm 1 mps 677 mmHg 70%
15:00 -3°C° 0 mm 1 mps 677 mmHg 73%
16:00 -3°C° 0 mm 1 mps 677 mmHg 76%
17:00 -4°C° 0 mm 1 mps 677 mmHg 75%
18:00 -6°C° 0 mm 1 mps 678 mmHg 74%
19:00 -7°C° 0 mm 1 mps 678 mmHg 73%
20:00 -7°C° 0 mm 1 mps 678 mmHg 73%
21:00 -7°C° 0 mm 1 mps 678 mmHg 72%
22:00 -7°C° 0 mm 1 mps 678 mmHg 72%
23:00 -7°C° 0 mm 1 mps 678 mmHg 72%

Tomorrow, 20 January, Wednesday

Time Temperature Precipitation Wind Pressure Humidity
00:00 -8°C° 0 mm 2 mps 678 mmHg 72%
01:00 -8°C° 0 mm 2 mps 678 mmHg 72%
02:00 -8°C° 0 mm 2 mps 678 mmHg 74%
03:00 -7°C° 0 mm 2 mps 678 mmHg 76%
04:00 -7°C° 0 mm 2 mps 678 mmHg 77%
05:00 -7°C° 0 mm 2 mps 678 mmHg 79%
06:00 -7°C° 0 mm 2 mps 679 mmHg 80%
07:00 -7°C° 0 mm 2 mps 679 mmHg 82%
08:00 -5°C° 0 mm 2 mps 679 mmHg 83%
09:00 -3°C° 0 mm 2 mps 680 mmHg 83%
10:00 0°C° 0 mm 1 mps 680 mmHg 84%
11:00 +1°C° 0 mm 1 mps 680 mmHg 85%
12:00 +1°C° 0 mm 1 mps 680 mmHg 87%
13:00 +1°C° 0 mm 2 mps 680 mmHg 88%
14:00 +1°C° 0 mm 2 mps 680 mmHg 87%
15:00 -1°C° 0 mm 2 mps 679 mmHg 86%
16:00 -1°C° 0 mm 2 mps 679 mmHg 85%
17:00 -2°C° 0 mm 2 mps 679 mmHg 85%
18:00 -3°C° 0 mm 2 mps 679 mmHg 84%
19:00 -3°C° 0 mm 2 mps 679 mmHg 84%
20:00 -1°C° 0 mm 1 mps 679 mmHg 84%
21:00 -1°C° 0 mm 1 mps 679 mmHg 84%
22:00 -1°C° 0 mm 1 mps 679 mmHg 83%
23:00 -1°C° 0 mm 1 mps 679 mmHg 84%

Day after tomorrow, 21 January, Thursday

Time Temperature Precipitation Wind Pressure Humidity
00:00 -1°C° 0 mm 1 mps 679 mmHg 84%
01:00 -1°C° 0 mm 1 mps 678 mmHg 84%
02:00 -1°C° 0 mm 1 mps 678 mmHg 85%
03:00 -1°C° 0 mm 1 mps 678 mmHg 86%
04:00 -1°C° 0 mm 1 mps 678 mmHg 87%
05:00 0°C° 0 mm 1 mps 678 mmHg 88%
06:00 0°C° 0 mm 1 mps 678 mmHg 89%
07:00 -2°C° 0 mm 2 mps 678 mmHg 90%
08:00 -1°C° 0 mm 2 mps 679 mmHg 92%
09:00 +1°C° 0 mm 2 mps 679 mmHg 94%
10:00 +2°C° 0 mm 2 mps 679 mmHg 96%
11:00 +2°C° 0 mm 2 mps 679 mmHg 96%
12:00 +2°C° 0 mm 2 mps 678 mmHg 97%
13:00 +3°C° 0 mm 2 mps 678 mmHg 97%
14:00 +2°C° 0 mm 2 mps 678 mmHg 97%
15:00 +2°C° 0 mm 2 mps 678 mmHg 97%
16:00 +2°C° 0 mm 2 mps 678 mmHg 97%
17:00 +2°C° 0 mm 2 mps 678 mmHg 96%
18:00 +2°C° 0 mm 2 mps 678 mmHg 95%
19:00 +2°C° 0 mm 2 mps 678 mmHg 95%
20:00 +2°C° 0 mm 2 mps 678 mmHg 94%
21:00 +2°C° 0 mm 2 mps 678 mmHg 94%
22:00 +2°C° 0 mm 2 mps 678 mmHg 94%
23:00 +2°C° 0 mm 2 mps 678 mmHg 94%

22 January, Friday

Time Temperature Precipitation Wind Pressure Humidity
00:00 +2°C° 0 mm 2 mps 677 mmHg 94%
01:00 +1°C° 0 mm 3 mps 677 mmHg 94%
02:00 +1°C° 0 mm 3 mps 677 mmHg 94%
03:00 +1°C° 0 mm 3 mps 677 mmHg 94%
04:00 +1°C° 0 mm 3 mps 676 mmHg 94%
05:00 +1°C° 0 mm 3 mps 676 mmHg 94%
06:00 +1°C° 0 mm 3 mps 676 mmHg 95%
07:00 +1°C° 0 mm 3 mps 676 mmHg 95%
08:00 +1°C° 0 mm 3 mps 676 mmHg 96%
09:00 +2°C° 0 mm 3 mps 676 mmHg 96%
10:00 +2°C° 0 mm 3 mps 676 mmHg 96%
11:00 +2°C° 0 mm 3 mps 675 mmHg 96%
12:00 +3°C° 0 mm 3 mps 675 mmHg 96%
13:00 +3°C° 0 mm 3 mps 675 mmHg 95%
14:00 +3°C° 0.1 mm 3 mps 674 mmHg 95%
15:00 +2°C° 0.1 mm 3 mps 674 mmHg 95%
16:00 +2°C° 0.1 mm 3 mps 674 mmHg 95%
17:00 +2°C° 0 mm 3 mps 674 mmHg 95%
18:00 +2°C° 0 mm 3 mps 674 mmHg 95%
19:00 +2°C° 0 mm 3 mps 674 mmHg 94%
20:00 +2°C° 0.1 mm 3 mps 673 mmHg 95%
21:00 +2°C° 0.1 mm 3 mps 673 mmHg 95%
22:00 +2°C° 0.1 mm 3 mps 673 mmHg 96%
23:00 +2°C° 0.2 mm 3 mps 673 mmHg 96%

23 January, Saturday

Time Temperature Precipitation Wind Pressure Humidity
00:00 +2°C° 0.2 mm 3 mps 672 mmHg 96%
01:00 +2°C° 0.2 mm 3 mps 672 mmHg 96%
02:00 +2°C° 0.3 mm 3 mps 672 mmHg 96%
03:00 +2°C° 0.3 mm 3 mps 671 mmHg 96%
04:00 +2°C° 0.3 mm 3 mps 671 mmHg 96%
05:00 +2°C° 0.4 mm 3 mps 671 mmHg 96%
06:00 +2°C° 0.4 mm 3 mps 671 mmHg 97%
07:00 +2°C° 0.4 mm 3 mps 671 mmHg 97%
08:00 +2°C° 0.3 mm 3 mps 670 mmHg 97%
09:00 +2°C° 0.3 mm 3 mps 670 mmHg 97%
10:00 +2°C° 0.3 mm 3 mps 670 mmHg 97%
11:00 +2°C° 1 mm 3 mps 669 mmHg 97%
12:00 +2°C° 1 mm 3 mps 669 mmHg 97%
13:00 +2°C° 1 mm 3 mps 668 mmHg 97%
14:00 +2°C° 1 mm 3 mps 668 mmHg 97%
15:00 +2°C° 1 mm 3 mps 667 mmHg 97%
16:00 +2°C° 1 mm 3 mps 666 mmHg 97%
17:00 +2°C° 0.9 mm 3 mps 667 mmHg 97%
18:00 +2°C° 0.9 mm 3 mps 667 mmHg 97%
19:00 +2°C° 0.9 mm 3 mps 667 mmHg 98%
20:00 +2°C° 0.2 mm 3 mps 667 mmHg 97%
21:00 +2°C° 0.2 mm 3 mps 667 mmHg 96%
22:00 +2°C° 0.2 mm 3 mps 667 mmHg 95%
23:00 +2°C° 0.5 mm 3 mps 667 mmHg 96%

24 January, Sunday

Time Temperature Precipitation Wind Pressure Humidity
00:00 +3°C° 0.5 mm 2 mps 667 mmHg 96%
01:00 +2°C° 0.5 mm 2 mps 667 mmHg 97%
02:00 +2°C° 0.9 mm 2 mps 667 mmHg 97%
03:00 +2°C° 0.9 mm 2 mps 667 mmHg 97%
04:00 +2°C° 0.9 mm 2 mps 667 mmHg 98%
05:00 +2°C° 0 mm 2 mps 668 mmHg 96%
06:00 +2°C° 0 mm 2 mps 668 mmHg 95%
07:00 +2°C° 0 mm 2 mps 668 mmHg 93%
08:00 +2°C° 0 mm 2 mps 668 mmHg 92%
09:00 +2°C° 0 mm 3 mps 669 mmHg 91%
10:00 +3°C° 0 mm 3 mps 669 mmHg 89%
11:00 +3°C° 0 mm 3 mps 669 mmHg 85%
12:00 +4°C° 0 mm 4 mps 668 mmHg 81%
13:00 +5°C° 0 mm 4 mps 668 mmHg 78%
14:00 +5°C° 0 mm 4 mps 668 mmHg 80%
15:00 +4°C° 0 mm 4 mps 667 mmHg 82%
16:00 +4°C° 0 mm 4 mps 667 mmHg 85%
17:00 +3°C° 0.9 mm 4 mps 667 mmHg 87%
18:00 +3°C° 0.9 mm 4 mps 666 mmHg 90%
19:00 +3°C° 0.9 mm 3 mps 666 mmHg 93%
20:00 +3°C° 2.6 mm 4 mps 666 mmHg 94%
21:00 +2°C° 2.6 mm 5 mps 666 mmHg 94%
22:00 +2°C° 2.6 mm 5 mps 666 mmHg 95%
23:00 +2°C° 0.4 mm 5 mps 666 mmHg 94%
Show more

We Need Your Consent

Meteoprog and our Service Providers may store and access personal data such as cookies, device identifiers or other similar technologies on your device and process such data to personalise content and ads, as well as provide social media features and to analyse the traffic.

  • Store and/or access information on your device

    Cookies, device identifiers or other information can be stored or accessed on your device for the purposes indicated above.

  • Personalised ads and content, ad and content measurement, audience insights, and products development

    Ads and content can be personalised based on a profile. More data can be added to better personalise ads and content. Ad and content performance can be measured. Insights about the audience who saw the ads and content can be derived. Such data can be used to develop or improve user’s experience, systems and software.

By clicking ‘I Agree’ you will allow the use of indicated cookies, device identifiers, web beacons or other similar technologies. Your settings can be changed in the browser on your device.

For certain purposes, legitimate interests may be relied on, rather than consent. You can read more about this in our Privacy and Cookie Policy.